User: anonymous   Login
Location: Christchurch
(43.5330°S, 172.6330°E)
Time: 07:21:57
(UTC+12:00)
Language:

Intelsat 806 - Orbit

View from above orbital plane
View from above orbital plane
View from above satellite
View from above satellite

Ground track
Ground track

The orbit data is extracted from the following two-line orbital elements,

1 25239U 98014A   19107.82713852 -.00000143 +00000-0 +00000-0 0  9996
2 25239 000.5792 102.9095 0004311 310.9142 274.5751 00.99080298021033
Epoch (UTC): 17 April 2019 19:51:04
Eccentricity: 0.0004311
inclination: 0.5792°
perigee height: 36105 km
apogee height: 36142 km
right ascension of ascending node: 102.9095°
argument of perigee: 310.9142°
revolutions per day: 0.99080298
mean anomaly at epoch: 274.5751°
orbit number at epoch: 2103

The dashed part of the orbit path shows where the satellite is in the earth's shadow,  

DLR